Retour au catalogue

FENGYUN 1C DEB

ActifSSO
NORAD 30634·DEBRIS·🇨🇳 China

Lancé May 10, 1999 depuis Taiyuan Satellite Launch Center

Loading…

Prochains Passages (prochaines 24 heures)

TLE

FraisSource: Space-Track

Époque: Sep 14, 2026, 11:53 UTC

1 30634U 99025ANR 26257.49581074  .00002379  00000-0  12473-2 0  9991
2 30634  99.3099 255.0751 0119945  48.8072 101.3672 14.11603374995058

Suivez FENGYUN 1C DEB en temps réel avec AllMySat

Download on the App Store